KB3YPI Weather Reports


time (UTC)temp
F
wind
direction
speed
knots
gust
knots
rain 1hr
in
rain 24hr
in
rain mn
in
humidity
%
barometer
mb
20260505192008 82 208 0.0 0.0 0.00 0.00 0.00 35 1006.2
20260505191509 82 219 0.0 0.0 0.00 0.00 0.00 37 1006.3
20260505191011 82 201 0.0 0.0 0.00 0.00 0.00 36 1006.3
20260505190507 82 153 0.0 0.0 0.00 0.00 0.00 36 1006.3
20260505190006 82 173 0.0 0.0 0.00 0.00 0.00 37 1006.4
20260505185504 83 142 0.0 0.0 0.00 0.00 0.00 36 1006.4
20260505185004 82 232 0.0 0.0 0.00 0.00 0.00 38 1006.5
20260505184503 82 213 0.0 0.0 0.00 0.00 0.00 36 1006.6
20260505184003 82 234 0.0 0.0 0.00 0.00 0.00 38 1006.8
20260505183500 81 122 0.0 0.0 0.00 0.00 0.00 37 1006.7
20260505183101 81 247 0.0 0.0 0.00 0.00 0.00 38 1006.7
20260505182559 80 195 0.0 0.0 0.00 0.00 0.00 36 1006.9
20260505182059 81 267 0.0 0.0 0.00 0.00 0.00 35 1006.9
20260505181556 81 236 0.0 0.0 0.00 0.00 0.00 36 1007.0
20260505181056 81 225 0.0 0.0 0.00 0.00 0.00 36 1007.1
20260505180555 81 227 0.0 0.0 0.00 0.00 0.00 37 1006.9
20260505180055 81 134 0.0 0.0 0.00 0.00 0.00 37 1007.1
20260505175554 81 163 0.0 0.0 0.00 0.00 0.00 38 1007.2
20260505175055 81 65 0.0 0.0 0.00 0.00 0.00 39 1007.2
20260505175053 81 164 0.0 0.0 0.00 0.00 0.00 39 1007.2
20260505174552 81 103 0.0 0.0 0.00 0.00 0.00 38 1007.2
20260505174051 80 198 0.0 0.0 0.00 0.00 0.00 42 1007.2
20260505173552 80 125 0.0 0.0 0.00 0.00 0.00 39 1007.2
20260505173051 80 211 0.0 0.0 0.00 0.00 0.00 38 1007.4
20260505172549 80 323 0.0 0.0 0.00 0.00 0.00 39 1007.5
20260505172048 79 111 0.0 0.0 0.00 0.00 0.00 41 1007.3
20260505171545 79 236 0.0 0.0 0.00 0.00 0.00 39 1007.4
20260505171046 79 178 0.0 0.0 0.00 0.00 0.00 37 1007.5
20260505170544 80 277 0.0 0.0 0.00 0.00 0.00 39 1007.6
20260505170044 80 116 0.0 0.0 0.00 0.00 0.00 38 1007.5
20260505165542 80 140 0.0 0.0 0.00 0.00 0.00 37 1007.7
20260505165043 80 199 0.0 0.0 0.00 0.00 0.00 36 1007.8
20260505164539 80 204 0.0 0.0 0.00 0.00 0.00 39 1007.9
20260505164039 80 221 0.0 0.0 0.00 0.00 0.00 38 1008.0
20260505163539 80 179 0.0 0.0 0.00 0.00 0.00 39 1008.1
20260505163037 79 234 0.0 0.0 0.00 0.00 0.00 40 1008.2
20260505162536 79 225 0.0 0.0 0.00 0.00 0.00 40 1008.3
20260505162036 79 167 0.0 0.0 0.00 0.00 0.00 40 1008.3
20260505161506 79 275 0.0 0.0 0.00 0.00 0.00 40 1008.3
20260505161004 79 239 0.0 0.0 0.00 0.00 0.00 41 1008.3
20260505160504 79 235 0.0 0.0 0.00 0.00 0.00 39 1008.4
20260505153054 78 257 0.0 0.0 0.00 0.00 0.00 49 1008.4
20260505152555 78 151 0.0 0.0 0.00 0.00 0.00 46 1008.5
20260505152052 77 217 0.0 0.0 0.00 0.00 0.00 45 1008.6
20260505151550 77 213 0.0 0.0 0.00 0.00 0.00 46 1008.5
20260505151049 77 244 0.0 0.0 0.00 0.00 0.00 47 1008.4
20260505150548 77 181 0.0 0.0 0.00 0.00 0.00 46 1008.6
20260505140529 72 157 0.0 0.0 0.00 0.00 0.00 53 1009.2
20260505125003 0 0.0 0.0 0.00 0.00 0.00 1009.8
20260505124502 0 0.0 0.0 0.00 0.00 0.00 1009.9
20260505124057 0 0.0 0.0 0.00 0.00 0.00 1009.9
20260505123558 0 0.0 0.0 0.00 0.00 0.00 1009.8
20260505123057 0 0.0 0.0 0.00 0.00 0.00 1009.8
20260505122556 0 0.0 0.0 0.00 0.00 0.00 1009.8
20260505122052 0 0.0 0.0 0.00 0.00 0.00 1009.8
20260505121550 0 0.0 0.0 0.00 0.00 0.00 1009.8
20260505121049 0 0.0 0.0 0.00 0.00 0.00 1009.7
20260505120548 0 0.0 0.0 0.00 0.00 0.00 1009.7
20260505120050 0 0.0 0.0 0.00 0.00 0.00 1009.7
20260505115549 56 146 0.0 0.0 0.00 0.00 0.00 88 1009.7
20260505115044 56 146 0.0 0.0 0.00 0.00 0.00 88 1009.6
20260505114546 56 146 0.0 0.0 0.00 0.00 0.00 89 1009.6
20260505114013 56 146 0.0 0.0 0.00 0.00 0.00 89 1009.5
20260505113515 55 146 0.0 0.0 0.00 0.00 0.00 91 1009.4
20260505113011 54 146 0.0 0.0 0.00 0.00 0.00 93 1009.3
20260505112511 53 146 0.0 0.0 0.00 0.00 0.00 94 1009.4
20260505112010 51 146 0.0 0.0 0.00 0.00 0.00 94 1009.2
20260505111510 51 146 0.0 0.0 0.00 0.00 0.00 93 1009.3
20260505111009 50 146 0.0 0.0 0.00 0.00 0.00 93 1009.2
20260505110505 50 146 0.0 0.0 0.00 0.00 0.00 92 1009.1
20260505102054 49 146 0.0 0.0 0.00 0.00 0.00 90 1008.9
20260505101552 49 146 0.0 0.0 0.00 0.00 0.00 90 1009.0
20260505101052 49 146 0.0 0.0 0.00 0.00 0.00 90 1008.9
20260505100522 49 146 0.0 0.0 0.00 0.00 0.00 89 1008.9
20260505100020 50 146 0.0 0.0 0.00 0.00 0.00 89 1008.9
20260505095518 50 146 0.0 0.0 0.00 0.00 0.00 89 1008.8
20260505095017 50 146 0.0 0.0 0.00 0.00 0.00 89 1008.7
20260505094525 50 146 0.0 0.0 0.00 0.00 0.00 89 1008.6
20260505094017 50 146 0.0 0.0 0.00 0.00 0.00 89 1008.6
20260505093546 50 146 0.0 0.0 0.00 0.00 0.00 88 1008.5
20260505093045 50 146 0.0 0.0 0.00 0.00 0.00 88 1008.6
20260505092546 50 146 0.0 0.0 0.00 0.00 0.00 88 1008.5
20260505092044 51 146 0.0 0.0 0.00 0.00 0.00 87 1008.4
20260505091543 51 146 0.0 0.0 0.00 0.00 0.00 87 1008.5
20260505091042 51 146 0.0 0.0 0.00 0.00 0.00 87 1008.4
20260505090539 51 146 0.0 0.0 0.00 0.00 0.00 86 1008.6
20260505090040 51 146 0.0 0.0 0.00 0.00 0.00 86 1008.4
20260505085537 51 146 0.0 0.0 0.00 0.00 0.00 85 1008.5
20260505085037 52 146 0.0 0.0 0.00 0.00 0.00 85 1008.4
20260505084543 52 146 0.0 0.0 0.00 0.00 0.00 85 1008.4
20260505084034 52 146 0.0 0.0 0.00 0.00 0.00 85 1008.4
20260505083534 52 146 0.0 0.0 0.00 0.00 0.00 85 1008.4
20260505083033 53 146 0.0 0.0 0.00 0.00 0.00 84 1008.5
20260505082532 53 146 0.0 0.0 0.00 0.00 0.00 84 1008.5
20260505082033 53 146 0.0 0.0 0.00 0.00 0.00 84 1008.4
20260505081532 53 146 0.0 0.0 0.00 0.00 0.00 84 1008.3
20260505081032 53 146 0.0 0.0 0.00 0.00 0.00 83 1008.4
20260505080600 53 146 0.0 0.0 0.00 0.00 0.00 83 1008.3
20260505080108 53 146 0.0 0.0 0.00 0.00 0.00 84 1008.3
20260505075559 53 146 0.0 0.0 0.00 0.00 0.00 83 1008.3
20260505075058 54 146 0.0 0.0 0.00 0.00 0.00 83 1008.2
20260505074557 54 146 0.0 0.0 0.00 0.00 0.00 82 1008.3
20260505074056 54 146 0.0 0.0 0.00 0.00 0.00 82 1008.3
20260505073555 55 146 0.0 0.0 0.00 0.00 0.00 81 1008.1
20260505073055 55 146 0.0 0.0 0.00 0.00 0.00 81 1008.0
20260505072551 55 146 0.0 0.0 0.00 0.00 0.00 80 1008.1
20260505072050 55 146 0.0 0.0 0.00 0.00 0.00 80 1008.1
20260505071550 55 146 0.0 0.0 0.00 0.00 0.00 80 1008.1
20260505071050 56 146 0.0 0.0 0.00 0.00 0.00 80 1008.1
20260505070549 56 146 0.0 0.0 0.00 0.00 0.00 80 1008.1
20260505070053 56 146 0.0 0.0 0.00 0.00 0.00 79 1008.1
20260505065548 56 146 0.0 0.0 0.00 0.00 0.00 79 1008.1
20260505065047 56 146 0.0 0.0 0.00 0.00 0.00 80 1008.2
20260505064547 56 146 0.0 0.0 0.00 0.00 0.00 81 1008.1
20260505064048 56 146 0.0 0.0 0.00 0.00 0.00 80 1008.2
20260505063516 56 146 0.0 0.0 0.00 0.00 0.00 81 1008.2
20260505063016 56 146 0.0 0.0 0.00 0.00 0.00 82 1008.2
20260505062516 56 146 0.0 0.0 0.00 0.00 0.00 82 1008.3
20260505062016 56 146 0.0 0.0 0.00 0.00 0.00 82 1008.2
20260505061615 56 146 0.0 0.0 0.00 0.00 0.00 81 1008.3
20260505061014 56 146 0.0 0.0 0.00 0.00 0.00 81 1008.3
20260505060517 56 146 0.0 0.0 0.00 0.00 0.00 81 1008.4
20260505060012 56 146 0.0 0.0 0.00 0.00 0.00 81 1008.3
20260505055511 56 146 0.0 0.0 0.00 0.00 0.00 79 1008.4
20260505055111 56 146 0.0 0.0 0.00 0.00 0.00 79 1008.4
20260505054511 57 146 0.0 0.0 0.00 0.00 0.00 78 1008.3
20260505054009 57 146 0.0 0.0 0.00 0.00 0.00 78 1008.4
20260505053514 57 146 0.0 0.0 0.00 0.00 0.00 77 1008.4
20260505053012 57 146 0.0 0.0 0.00 0.00 0.00 77 1008.4
20260505052609 57 146 0.0 0.0 0.00 0.00 0.00 77 1008.4
20260505052008 57 146 0.0 0.0 0.00 0.00 0.00 76 1008.4
20260505051512 57 146 0.0 0.0 0.00 0.00 0.00 76 1008.4
20260505051007 57 146 0.0 0.0 0.00 0.00 0.00 76 1008.3
20260505050509 57 146 0.0 0.0 0.00 0.00 0.00 76 1008.4
20260505041558 56 146 0.0 0.0 0.00 0.00 0.00 76 1008.1
20260505041056 56 146 0.0 0.0 0.00 0.00 0.00 75 1008.0
20260505040554 56 146 0.0 0.0 0.00 0.00 0.00 75 1008.0
20260505040054 56 146 0.0 0.0 0.00 0.00 0.00 75 1008.0
20260505035550 56 146 0.0 0.0 0.00 0.00 0.00 76 1008.1
20260505035053 56 146 0.0 0.0 0.00 0.00 0.00 76 1008.0
20260505034549 56 146 0.0 0.0 0.00 0.00 0.00 76 1008.0
20260505034054 56 146 0.0 0.0 0.00 0.00 0.00 75 1008.0
20260505033552 56 146 0.0 0.0 0.00 0.00 0.00 74 1008.0
20260505033048 56 146 0.0 0.0 0.00 0.00 0.00 74 1008.0
20260505032548 57 146 0.0 0.0 0.00 0.00 0.00 73 1008.0
20260505032046 57 146 0.0 0.0 0.00 0.00 0.00 73 1008.1
20260505031555 57 146 0.0 0.0 0.00 0.00 0.00 72 1008.1
20260505031046 57 146 0.0 0.0 0.00 0.00 0.00 70 1008.1
20260505030547 58 146 0.0 0.0 0.00 0.00 0.00 70 1008.1
20260505030046 58 146 0.0 0.0 0.00 0.00 0.00 70 1008.1
20260505025546 58 146 0.0 0.0 0.00 0.00 0.00 69 1008.1
20260505025045 59 146 0.0 0.0 0.00 0.00 0.00 68 1008.1
20260505024556 59 146 0.0 0.0 0.00 0.00 0.00 69 1008.0
20260505024045 59 146 0.0 0.0 0.00 0.00 0.00 66 1007.9
20260505023545 59 146 0.0 0.0 0.00 0.00 0.00 65 1007.8
20260505023015 60 146 0.0 0.0 0.00 0.00 0.00 65 1007.8
20260505022515 60 146 0.0 0.0 0.00 0.00 0.00 64 1007.8
20260505022015 60 146 0.0 0.0 0.00 0.00 0.00 62 1007.8
20260505021515 61 146 0.0 0.0 0.00 0.00 0.00 62 1007.9
20260505021015 61 146 0.0 0.0 0.00 0.00 0.00 62 1007.9
20260505020514 62 146 0.0 0.0 0.00 0.00 0.00 61 1007.9
20260505020044 62 146 0.0 0.0 0.00 0.00 0.00 61 1007.9
20260505015548 62 146 0.0 0.0 0.00 0.00 0.00 59 1007.9
20260505015044 62 146 0.0 0.0 0.00 0.00 0.00 58 1007.9
20260505014602 63 146 0.0 0.0 0.00 0.00 0.00 58 1007.9
20260505014043 63 146 0.0 0.0 0.00 0.00 0.00 56 1007.8
20260505013543 64 146 0.0 0.0 0.00 0.00 0.00 55 1007.8
20260505013012 64 146 0.0 0.0 0.00 0.00 0.00 55 1007.7
20260505012512 65 146 0.0 0.0 0.00 0.00 0.00 53 1007.8
20260505012012 65 146 0.0 0.0 0.00 0.00 0.00 53 1007.7
20260505011514 66 146 0.0 0.0 0.00 0.00 0.00 51 1007.8
20260505011011 66 146 0.0 0.0 0.00 0.00 0.00 50 1007.7
20260505010512 67 146 0.0 0.0 0.00 0.00 0.00 49 1007.6
20260505010009 67 146 0.0 0.0 0.00 0.00 0.00 48 1007.5
20260505005509 67 161 0.0 0.0 0.00 0.00 0.00 48 1007.4
20260505005009 68 161 0.0 0.0 0.00 0.00 0.00 47 1007.3
20260505004510 68 161 0.0 0.0 0.00 0.00 0.00 46 1007.3
20260505004010 69 161 0.0 0.0 0.00 0.00 0.00 46 1007.2
20260505003513 69 122 0.0 0.0 0.00 0.00 0.00 44 1007.1
20260505003009 69 123 0.0 0.0 0.00 0.00 0.00 45 1007.2
20260505002508 70 271 0.0 0.0 0.00 0.00 0.00 44 1007.2
20260505002008 70 137 0.0 0.0 0.00 0.00 0.00 43 1007.1
20260505001508 70 205 0.0 0.0 0.00 0.00 0.00 43 1007.1
20260505001008 70 167 0.0 0.0 0.00 0.00 0.00 42 1007.1
20260505000514 70 119 0.0 0.0 0.00 0.00 0.00 42 1007.0
20260505000010 71 168 0.0 0.0 0.00 0.00 0.00 41 1007.1
20260504235507 71 171 0.0 0.0 0.00 0.00 0.00 41 1007.0
20260504235004 71 130 0.0 0.0 0.00 0.00 0.00 41 1006.9
20260504234503 71 173 0.0 0.0 0.00 0.00 0.00 41 1006.9
20260504234003 71 160 0.0 0.0 0.00 0.00 0.00 41 1006.9
20260504233504 71 158 0.0 0.0 0.00 0.00 0.00 40 1006.8
20260504233003 72 141 0.0 0.0 0.00 0.00 0.00 41 1006.8
20260504232501 72 214 0.0 0.0 0.00 0.00 0.00 40 1006.8
20260504232001 72 137 0.0 0.0 0.00 0.00 0.00 40 1006.8
20260504231501 72 201 0.0 0.0 0.00 0.00 0.00 40 1006.8
20260504231002 72 142 0.0 0.0 0.00 0.00 0.00 41 1006.8
20260504230600 72 146 0.0 0.0 0.00 0.00 0.00 40 1006.8
20260504230501 72 115 0.0 0.0 0.00 0.00 0.00 40 1006.8
20260504230101 73 276 0.0 0.0 0.00 0.00 0.00 39 1006.9
20260504225557 73 141 0.0 0.0 0.00 0.00 0.00 39 1006.8
20260504225057 73 137 0.0 0.0 0.00 0.00 0.00 40 1006.9
20260504224607 73 119 0.0 0.0 0.00 0.00 0.00 39 1006.9
20260504224057 73 149 0.0 0.0 0.00 0.00 0.00 39 1006.9
20260504223557 73 214 0.0 0.0 0.00 0.00 0.00 39 1006.8
20260504223133 73 279 0.0 0.0 0.00 0.00 0.00 39 1006.9
20260504222557 73 252 0.0 0.0 0.00 0.00 0.00 38 1007.0
20260504222057 74 217 0.0 0.0 0.00 0.00 0.00 38 1007.0
20260504221557 74 146 0.0 0.0 0.00 0.00 0.00 37 1007.0
20260504221100 74 104 0.0 0.0 0.00 0.00 0.00 38 1007.1
20260504220556 74 139 0.0 0.0 0.00 0.00 0.00 37 1007.0
20260504220057 74 190 0.0 0.0 0.00 0.00 0.00 38 1007.0
20260504215525 74 175 0.0 0.0 0.00 0.00 0.00 38 1007.0
20260504215024 74 186 0.0 0.0 0.00 0.00 0.00 37 1007.0
20260504214526 74 252 0.0 0.0 0.00 0.00 0.00 37 1007.0
20260504214023 74 125 0.0 0.0 0.00 0.00 0.00 38 1007.0
20260504213525 74 188 0.0 0.0 0.00 0.00 0.00 38 1007.1
20260504213034 74 136 0.0 0.0 0.00 0.00 0.00 37 1007.0
20260504212553 74 166 0.0 0.0 0.00 0.00 0.00 39 1007.1
20260504212052 74 151 0.0 0.0 0.00 0.00 0.00 39 1007.0
20260504211551 74 154 0.0 0.0 0.00 0.00 0.00 38 1007.0
20260504211051 74 161 0.0 0.0 0.00 0.00 0.00 39 1007.0
20260504210551 74 133 0.0 0.0 0.00 0.00 0.00 38 1007.0
20260504210056 74 141 0.0 0.0 0.00 0.00 0.00 38 1007.0
20260504205547 74 153 0.0 0.0 0.00 0.00 0.00 38 1007.0
20260504205047 74 126 0.0 0.0 0.00 0.00 0.00 38 1007.0
20260504204549 74 183 0.0 0.0 0.00 0.00 0.00 38 1007.1
20260504204043 74 193 0.0 0.0 0.00 0.00 0.00 39 1007.1
20260504203542 74 148 0.0 0.0 0.00 0.00 0.00 40 1007.1
20260504203058 74 150 0.0 0.0 0.00 0.00 0.00 38 1007.2
20260504202541 74 148 0.0 0.0 0.00 0.00 0.00 39 1007.3
20260504202043 74 136 0.0 0.0 0.00 0.00 0.00 37 1007.4
20260504201539 74 166 0.0 0.0 0.00 0.00 0.00 37 1007.5
20260504201038 74 212 0.0 0.0 0.00 0.00 0.00 37 1007.5
20260504200536 74 165 0.0 0.0 0.00 0.00 0.00 39 1007.6
20260504200036 73 192 0.0 0.0 0.00 0.00 0.00 39 1007.7
20260504195538 73 181 0.0 0.0 0.00 0.00 0.00 40 1007.8
20260504195534 73 175 0.0 0.0 0.00 0.00 0.00 40 1007.8
20260504195032 73 140 0.0 0.0 0.00 0.00 0.00 37 1007.9
20260504194531 73 91 0.0 0.0 0.00 0.00 0.00 37 1008.0
20260504194030 73 185 0.0 0.0 0.00 0.00 0.00 37 1008.1
20260504193530 73 193 0.0 0.0 0.00 0.00 0.00 38 1008.2
20260504193029 73 204 0.0 0.0 0.00 0.00 0.00 41 1008.1
20260504192530 73 146 0.0 0.0 0.00 0.00 0.00 40 1008.3
20260504192528 73 148 0.0 0.0 0.00 0.00 0.00 40 1008.3
20260504192027 73 146 0.0 0.0 0.00 0.00 0.00 37 1008.4